星链-1446 (STARLINK-1446 )

导读 | 豆包AI

STARLINK-1446是美国SpaceX公司星链(Starlink)卫星互联网星座的成员,于北京时间2020年6月4日发射升空,归入低地球轨道组网。作为星链大规模部署阶段的一颗卫星,它承担着为全球提供高速低延迟互联网接入的任务,助力项目覆盖偏远地区、填补数字鸿沟,同时星链系统也已拓展至军事与应急通信领域。

Basic Information
目录编号:
45663
目录名称:
STARLINK-1446
国际标识:
2020-035G
轨道中心:
EARTH
卫星名称:
星链-1446
卫星全名:
星链-1446 (STARLINK-1446 )
卫星状态:
在轨 (已飞行2181 天)
发射日期:
2020-06-04 UTC
国别 :
美国 (US)
星等 :
--
Orbit Information
数据来源 国际轨道数据 AOE轨道数据
星历时间 2026-05-24T09:25:13+0800
1天前
查看轨道信息
2026-05-21T22:00:00+0800
3天前
查看轨道信息
半长轴 6805.086km 6805.367km
偏心率 0.0004164 0.0004271
轨道倾角 53.023° 53.025°
近地点辐角 126.919° 121.955°
升交点赤经 0.388° 12.216°
平近点角 233.220° 126.549°
近地点 424.115km 424.323km
远地点 429.783km 430.137km
周期 93.113分钟 93.119分钟
每日圈数 15.465089 15.46413
Detailed Information
固有亮度:
5
最大亮度:
2.5
卫星平台:
Starlink V1.0
覆盖范围:
全球
运营商:
太空探索技术公司
运营商所在国:
美国
制造商(研发单位):
太空探索技术公司
制造商所在国:
美国
使用方式:
暂无
Satellite Introduction
星链(Starlink)计划是由太空探索技术公司(SpaceX)提出的一个巨型低轨卫星互联网星座项目,计划在2019年至2024年间在太空搭建由约1.2万颗卫星组成的“星链”网络,其中1584颗将部署在地球上空550千米处的近地轨道,并从2020年开始工作。该卫星仍在工作。
2D Orbit Map
3D Orbit Map
Orbit Altitude Analysis Chart
Orbit Inclination Analysis Chart
Orbit Comprehensive Analysis Chart
View Comprehensive Chart